Weather in Udelnaya

Russia / Moscow Oblast     55°38′09″N   38°02′39″E
temp.,
°C
wind,
m/s
gust,
m/s
humid.,
%
clouds,
%
prec.,
mm/h
press.,
hPa
HPBL,
m
27 july, tue
tue2700:00+20e0055100 0.0 102120
03:00+18n11637 0.0 102217
06:00+18n11640 0.0 102146
09:00+24nne12421 0.0 1020554
12:00+28nne11304 0.0 10202288
15:00+29w232641 0.0 10192931
18:00+28nne123010 0.0 10172324
21:00+22se23515 0.0 101888
28 july, wed
wed2800:00+21sse2255100 0.0 101856
03:00+19ssw226787 0.0 101738
06:00+19sse126882 0.0 101675
09:00+24sse345445 0.0 1015546
12:00+27ssw564499 0.0 10141710
15:00+23sw2454100 0.0 1013280
18:00+18s31083100 0.6 1012600
21:00+18s3797100 5.9 1009566
29 july, thu
thu2900:00+17sw2597100 4.9 1008428
03:00+17w2596100 4.9 1007336
06:00+17wnw26937 0.0 1007341
09:00+21w357645 0.0 1007680
12:00+26wnw4652100 0.0 10061509
15:00+28wnw4641100 0.0 10052408
18:00+26wnw4649100 0.0 10051229
21:00+22wsw236135 0.0 100568
30 july, fri
fri3000:00+20w258010 0.3 1006102
03:00+19w24785 0.3 100685
06:00+19wnw24761 0.0 1007155
09:00+23w23544 0.0 1007631
12:00+27wsw343947 0.0 10072152
15:00+25w4649100 0.0 1007833
18:00+25wnw474683 0.0 1007845
21:00+22sw225572 0.0 100741
31 july, sat
sat3100:00+20sw256436 0.0 1007119
03:00+18ssw386896 0.0 1007187
06:00+19ssw31166100 0.0 1006391
09:00+19ssw3874100 0.1 1005269
12:00+18ssw26907 0.8 1006248
15:00+24sw496151 1.7 10041489
18:00+23w49670 1.6 10051005
21:00+20sw38713 1.6 1005206